Weather History for Zacatecas Airport, Mexico

Change the Weather History Date:

Tuesday, May 7, 2013

  Actual Average Record
Temperature  
Mean Temperature 65 °F -  
Max Temperature 82 °F 80 °F 91 °F (2003)
Min Temperature 48 °F 49 °F 44 °F (1999)
Growing Degree Days 15 (Base 50)    
Moisture  
Dew Point 27 °F    
Average Humidity 25    
Maximum Humidity 54    
Minimum Humidity 11    
Precipitation  
Precipitation 0.00 in - - ()
Sea Level Pressure  
Sea Level Pressure 30.26 in    
Wind  
Wind Speed 8 mph ()    
Max Wind Speed 17 mph    
Max Gust Speed 23 mph    
Visibility 10.0 miles    
Events      
Averages and records for this station are not official NWS values.
T = Trace of Precipitation, MM = Missing Value Source: Averaged Metar Reports

Daily Weather History Graph

Daily Weather History Graph

Search for Another Location

Airport:

Trip Planner

Search our weather history database for the weather conditions in past years. The results will help you decide how hot, cold, wet, or windy it might be!

Date:

Astronomy

May. 07, 2013 Rise Set
Actual Time 7:13 AM CDT 8:20 PM CDT
Civil Twilight 6:50 AM CDT 8:44 PM CDT
Nautical Twilight 6:21 AM CDT 9:13 PM CDT
Astronomical Twilight 5:52 AM CDT 9:42 PM CDT
Moon 5:34 AM CDT (5/7) 6:33 PM CDT (5/7)
Length of Visible Light 13h 54m
Length of Day
13h 07m
Waning Crescent, 5% of the Moon is Illuminated
May 7
Waning Crescent
May 9
New
May 17
First Quarter
May 24
Full
May 31
Last Quarter

Hourly Weather History & Observations

Time (CDT) Temp. Dew Point Humidity Pressure Visibility Wind Dir Wind Speed Gust Speed Precip Events Conditions
12:40 AM 64.4 °F 35.6 °F 34% 30.28 in 10.0 mi WNW 11.5 mph - N/A   Clear
3:21 AM 59.0 °F 33.8 °F 39% 30.26 in 10.0 mi WSW 10.4 mph - N/A   Clear
3:42 AM 57.2 °F 33.8 °F 41% 30.26 in 10.0 mi WSW 5.8 mph - N/A   Clear
4:42 AM 55.4 °F 33.8 °F 44% 30.26 in 10.0 mi WSW 10.4 mph - N/A   Clear
5:42 AM 55.4 °F 33.8 °F 44% 30.28 in 10.0 mi Calm Calm - N/A   Clear
6:52 AM 48.2 °F 32.0 °F 54% 30.28 in 10.0 mi WSW 9.2 mph - N/A   Clear
7:51 AM 51.8 °F 32.0 °F 47% 30.30 in 10.0 mi SW 8.1 mph - N/A   Clear
8:40 AM 60.8 °F 32.0 °F 34% 30.32 in 10.0 mi East 3.5 mph - N/A   Clear
9:41 AM 66.2 °F 30.2 °F 26% 30.33 in 10.0 mi WNW 11.5 mph - N/A   Clear
10:41 AM 71.6 °F 26.6 °F 19% 30.34 in 10.0 mi North 17.3 mph - N/A   Clear
11:41 AM 71.6 °F 28.4 °F 20% 30.35 in 10.0 mi NNE 8.1 mph - N/A   Clear
12:41 PM 73.4 °F 30.2 °F 20% 30.32 in 10.0 mi North 13.8 mph - N/A   Clear
1:42 PM 75.2 °F 28.4 °F 18% 30.30 in 10.0 mi NW 16.1 mph - N/A   Clear
2:44 PM 78.8 °F 26.6 °F 15% 30.26 in 10.0 mi North 9.2 mph - N/A   Clear
3:51 PM 80.6 °F 23.0 °F 12% 30.23 in 10.0 mi North 9.2 mph - N/A   Clear
4:44 PM 82.4 °F 23.0 °F 11% 30.20 in 10.0 mi NNW 11.5 mph 23.0 mph N/A   Scattered Clouds
5:45 PM 82.4 °F 23.0 °F 11% 30.18 in 10.0 mi North 17.3 mph - N/A   Scattered Clouds
6:45 PM 80.6 °F 21.2 °F 11% 30.18 in 10.0 mi NNE 11.5 mph 23.0 mph N/A   Mostly Cloudy
7:45 PM 78.8 °F 19.4 °F 11% 30.18 in 10.0 mi North 13.8 mph - N/A   Mostly Cloudy
8:45 PM 71.6 °F 14.0 °F 11% 30.21 in 10.0 mi NE 8.1 mph - N/A   Scattered Clouds
9:41 PM 66.2 °F 12.2 °F 12% 30.23 in 10.0 mi East 4.6 mph - N/A   Scattered Clouds
10:41 PM 62.6 °F 15.8 °F 16% 30.26 in 10.0 mi West 6.9 mph - N/A   Partly Cloudy
11:40 PM 62.6 °F 28.4 °F 27% 30.28 in 10.0 mi South 4.6 mph - N/A   Partly Cloudy